Temp: 18.5°C   Baro: 1022.5mb
  Wind: 10.1mph   Dir: WNW (301°)
  Rain: 0.0mm (0.0mm/hr)
  Solar: 132W/m2  Hum: 55%
 
Bath Spa Weather Station Historical Data
Daily Summary for March 4, 2020 Units:  Metric    English   Both
Daily Weekly Monthly Yearly Custom
  High: Low: Average:
Temperature: 18.2 °C 15.1 °C 16.6 °C
Dew Point: 16.1 °C 13.3 °C 14.8 °C
Humidity: 93% 84% 89%
Wind Speed: 17.4km/h 4km/h 10.1km/h
Wind Gust: 30.6km/h - -
Wind- - WSW
Pressure: 1012.1 hPa 1009.7 hPa -
Precipitation: 1.02 mm    
Historical Graphs
 
 
Tabular Data for March 4, 2020
Time Temperature Dew Point Pressure Wind Wind Speed Wind Gust Humidity Rainfall Rate (Hourly) solar
00:04 15.1 °C 13.3 °C 1012.1 hPa SW 9.2 km/h 16.1 km/h 89% 0 mm 0 W/m2
00:09 15.1 °C 13.4 °C 1012.1 hPa WSW 10.5 km/h 16.1 km/h 89.6% 0 mm 0 W/m2
00:14 15.1 °C 13.5 °C 1012.1 hPa SW 9 km/h 19.3 km/h 90% 0 mm 0 W/m2
00:19 15.1 °C 13.5 °C 1012.1 hPa SW 6.6 km/h 22.5 km/h 90% 0 mm 0 W/m2
00:24 15.1 °C 13.5 °C 1011.7 hPa SW 7.7 km/h 16.1 km/h 90% 0 mm 0 W/m2
00:29 15.1 °C 13.5 °C 1011.7 hPa SW 9.7 km/h 16.1 km/h 90% 0 mm 0 W/m2
00:34 15.1 °C 13.5 °C 1011.7 hPa SW 9 km/h 17.7 km/h 90% 0 mm 0 W/m2
00:39 15.1 °C 13.6 °C 1011.7 hPa SW 8.9 km/h 17.7 km/h 90.4% 0 mm 0 W/m2
00:44 15.1 °C 13.6 °C 1011.7 hPa SW 5.3 km/h 12.9 km/h 91% 0 mm 0 W/m2
00:49 15.1 °C 13.6 °C 1011.7 hPa SSW 6.4 km/h 19.3 km/h 91% 0 mm 0 W/m2
00:54 15.1 °C 13.6 °C 1011.4 hPa SW 10.8 km/h 19.3 km/h 91% 0 mm 0 W/m2
00:59 15.2 °C 13.7 °C 1011.4 hPa SW 12.2 km/h 24.1 km/h 91% 0 mm 0 W/m2
01:04 15.2 °C 13.7 °C 1011.4 hPa SW 10.6 km/h 19.3 km/h 91% 0 mm 0 W/m2
01:09 15.2 °C 13.7 °C 1011.1 hPa SW 11.3 km/h 20.9 km/h 91% 0 mm 0 W/m2
01:14 15.2 °C 13.7 °C 1011.1 hPa SW 4.5 km/h 19.3 km/h 91% 0 mm 0 W/m2
01:19 15.2 °C 13.7 °C 1011.1 hPa WSW 10 km/h 20.9 km/h 91% 0 mm 0 W/m2
01:24 15.2 °C 13.7 °C 1011.1 hPa West 10.3 km/h 20.9 km/h 91% 0 mm 0 W/m2
01:29 15.2 °C 13.7 °C 1011.1 hPa SW 8.5 km/h 17.7 km/h 91% 0 mm 0 W/m2
01:34 15.2 °C 13.7 °C 1011.1 hPa SW 8.5 km/h 14.5 km/h 91% 0 mm 0 W/m2
01:39 15.3 °C 13.8 °C 1011.1 hPa SW 9.2 km/h 17.7 km/h 91.2% 0 mm 0 W/m2
01:44 15.2 °C 13.8 °C 1011.1 hPa WSW 10.8 km/h 17.7 km/h 91.6% 0.25 mm 0 W/m2
01:49 15.2 °C 13.9 °C 1011.1 hPa WSW 8.4 km/h 16.1 km/h 92% 0.51 mm 0 W/m2
01:54 15.3 °C 13.9 °C 1011.1 hPa West 5.5 km/h 16.1 km/h 92% 0.51 mm 0 W/m2
01:59 15.2 °C 13.9 °C 1010.7 hPa WSW 11.7 km/h 19.3 km/h 92% 0.51 mm 0 W/m2
02:04 15.3 °C 14 °C 1010.7 hPa WSW 9.3 km/h 19.3 km/h 92% 0.51 mm 0 W/m2
02:09 15.3 °C 14 °C 1010.7 hPa SW 10 km/h 24.1 km/h 92% 0.51 mm 0 W/m2
02:14 15.3 °C 14 °C 1010.7 hPa WSW 13.5 km/h 19.3 km/h 92% 0.51 mm 0 W/m2
02:19 15.3 °C 14 °C 1010.7 hPa West 10.6 km/h 17.7 km/h 92% 0.51 mm 0 W/m2
02:24 15.3 °C 14 °C 1010.7 hPa WSW 10.3 km/h 24.1 km/h 92% 0.51 mm 0 W/m2
02:29 15.3 °C 14 °C 1010.7 hPa SW 13.7 km/h 24.1 km/h 92% 0.51 mm 0 W/m2
02:34 15.3 °C 13.9 °C 1010.4 hPa WSW 9.7 km/h 24.1 km/h 91.4% 0.51 mm 0 W/m2
02:39 15.4 °C 13.9 °C 1010.4 hPa WSW 10.9 km/h 17.7 km/h 91% 0.51 mm 0 W/m2
02:44 15.4 °C 13.9 °C 1010.4 hPa SW 10 km/h 17.7 km/h 91% 0.25 mm 0 W/m2
02:49 15.4 °C 13.9 °C 1010.4 hPa SW 12.9 km/h 20.9 km/h 91% 0 mm 0 W/m2
02:54 15.4 °C 13.9 °C 1010.4 hPa WSW 10.9 km/h 22.5 km/h 91% 0 mm 0 W/m2
02:59 15.4 °C 13.9 °C 1010.4 hPa SW 8.7 km/h 19.3 km/h 91% 0 mm 0 W/m2
03:04 15.4 °C 13.9 °C 1010.4 hPa SW 13.2 km/h 19.3 km/h 91% 0 mm 0 W/m2
03:14 15.5 °C 14 °C 1010.4 hPa WSW 7.9 km/h 22.5 km/h 91% 0 mm 0 W/m2
03:19 15.6 °C 14.1 °C 1010 hPa SW 9.7 km/h 22.5 km/h 91% 0 mm 0 W/m2
03:24 15.6 °C 14.1 °C 1010 hPa WSW 8.2 km/h 19.3 km/h 91% 0 mm 0 W/m2
03:29 15.6 °C 14.1 °C 1010 hPa WSW 11.9 km/h 20.9 km/h 91% 0 mm 0 W/m2
03:34 15.6 °C 14.1 °C 1010 hPa SW 13.7 km/h 22.5 km/h 91% 0 mm 0 W/m2
03:39 15.6 °C 14.1 °C 1010 hPa SW 14 km/h 22.5 km/h 91% 0 mm 0 W/m2
03:44 15.7 °C 14.2 °C 1010 hPa WSW 10.6 km/h 22.5 km/h 91% 0 mm 0 W/m2
03:49 15.7 °C 14.2 °C 1010 hPa SW 15.4 km/h 27.4 km/h 90.6% 0 mm 0 W/m2
03:54 15.7 °C 14.1 °C 1010 hPa WSW 15.1 km/h 24.1 km/h 90% 0 mm 0 W/m2
03:59 15.7 °C 14.1 °C 1010 hPa WSW 10 km/h 20.9 km/h 90% 0 mm 0 W/m2
04:04 15.7 °C 14.1 °C 1010 hPa SW 10.9 km/h 22.5 km/h 90% 0 mm 0 W/m2
04:09 15.7 °C 14.1 °C 1010 hPa WSW 9.3 km/h 24.1 km/h 90% 0 mm 0 W/m2
04:14 15.8 °C 14.2 °C 1010 hPa SW 10.8 km/h 20.9 km/h 90% 0 mm 0 W/m2
04:19 15.8 °C 14.2 °C 1010 hPa SW 11.3 km/h 17.7 km/h 90% 0 mm 0 W/m2
04:24 15.8 °C 14.2 °C 1010 hPa WSW 9.3 km/h 19.3 km/h 90% 0 mm 0 W/m2
04:29 15.8 °C 14.2 °C 1010 hPa WSW 9 km/h 19.3 km/h 90% 0 mm 0 W/m2
04:34 15.8 °C 14.2 °C 1010 hPa West 9.7 km/h 20.9 km/h 90% 0 mm 0 W/m2
04:39 15.8 °C 14.2 °C 1010 hPa SW 10.6 km/h 19.3 km/h 90% 0 mm 0 W/m2
04:44 15.8 °C 14.2 °C 1010 hPa WSW 6.8 km/h 20.9 km/h 90% 0 mm 0 W/m2
04:49 15.8 °C 14.3 °C 1010 hPa SW 5.8 km/h 20.9 km/h 90% 0 mm 0 W/m2
04:54 15.8 °C 14.2 °C 1010 hPa WSW 9.3 km/h 16.1 km/h 90% 0 mm 0 W/m2
04:59 15.9 °C 14.3 °C 1010 hPa WSW 9.2 km/h 17.7 km/h 90% 0 mm 0 W/m2
05:04 15.9 °C 14.3 °C 1010 hPa SW 8.4 km/h 19.3 km/h 90% 0 mm 0 W/m2
05:09 15.9 °C 14.3 °C 1009.7 hPa WSW 12.2 km/h 22.5 km/h 90% 0 mm 0 W/m2
05:14 15.9 °C 14.3 °C 1009.7 hPa WSW 10.3 km/h 19.3 km/h 90% 0 mm 0 W/m2
05:19 15.9 °C 14.3 °C 1009.7 hPa SW 11.9 km/h 19.3 km/h 90% 0 mm 0 W/m2
05:24 15.9 °C 14.3 °C 1009.7 hPa WSW 10.9 km/h 20.9 km/h 90% 0 mm 0 W/m2
05:29 15.9 °C 14.3 °C 1010 hPa SW 16.1 km/h 22.5 km/h 90% 0 mm 0 W/m2
05:34 15.9 °C 14.3 °C 1010 hPa WSW 7.7 km/h 17.7 km/h 90% 0 mm 5 W/m2
05:39 15.8 °C 14.2 °C 1010 hPa SW 8.9 km/h 16.1 km/h 90% 0 mm 11 W/m2
05:44 15.8 °C 14.2 °C 1010 hPa West 7.6 km/h 20.9 km/h 90.2% 0 mm 12 W/m2
05:49 15.8 °C 14.3 °C 1009.7 hPa WSW 11.6 km/h 20.9 km/h 90.6% 0 mm 12 W/m2
05:54 15.8 °C 14.3 °C 1009.7 hPa SW 9.3 km/h 19.3 km/h 90.6% 0 mm 19 W/m2
05:59 15.8 °C 14.3 °C 1009.7 hPa WSW 8.7 km/h 14.5 km/h 91% 0 mm 30 W/m2
06:04 15.8 °C 14.3 °C 1009.7 hPa SW 11.9 km/h 20.9 km/h 91% 0 mm 28 W/m2
06:09 15.8 °C 14.3 °C 1010 hPa WSW 10.1 km/h 17.7 km/h 91% 0 mm 19 W/m2
06:14 15.8 °C 14.3 °C 1010 hPa WSW 8.7 km/h 19.3 km/h 91% 0 mm 25 W/m2
06:19 15.8 °C 14.3 °C 1010 hPa WSW 8.9 km/h 20.9 km/h 91% 0 mm 23 W/m2
06:24 15.8 °C 14.3 °C 1010 hPa SW 10.6 km/h 20.9 km/h 91% 0 mm 28 W/m2
06:29 15.8 °C 14.3 °C 1010 hPa WSW 10.6 km/h 20.9 km/h 91% 0 mm 26 W/m2
06:34 15.8 °C 14.3 °C 1010 hPa WSW 9.8 km/h 17.7 km/h 91% 0 mm 26 W/m2
06:39 15.8 °C 14.3 °C 1010.4 hPa WSW 8.4 km/h 16.1 km/h 91% 0 mm 26 W/m2
06:44 15.8 °C 14.3 °C 1010.4 hPa West 6.9 km/h 14.5 km/h 91% 0 mm 32 W/m2
06:49 15.7 °C 14.4 °C 1010 hPa WSW 6 km/h 12.9 km/h 92% 0 mm 33 W/m2
06:54 15.7 °C 14.4 °C 1010 hPa West 7.7 km/h 17.7 km/h 92% 0 mm 51 W/m2
06:59 15.7 °C 14.4 °C 1010 hPa WSW 5.8 km/h 14.5 km/h 92% 0 mm 44 W/m2
07:04 15.8 °C 14.5 °C 1010 hPa WSW 10 km/h 14.5 km/h 92% 0 mm 37 W/m2
07:09 15.8 °C 14.5 °C 1010 hPa West 5.6 km/h 14.5 km/h 92% 0 mm 37 W/m2
07:14 15.8 °C 14.5 °C 1010 hPa West 9.7 km/h 14.5 km/h 92% 0 mm 42 W/m2
07:19 15.8 °C 14.5 °C 1010.4 hPa West 12.2 km/h 20.9 km/h 92% 0 mm 49 W/m2
07:24 15.8 °C 14.5 °C 1010 hPa West 6.8 km/h 16.1 km/h 92% 0 mm 54 W/m2
07:29 15.8 °C 14.5 °C 1010 hPa WNW 6.4 km/h 16.1 km/h 92% 0 mm 60 W/m2
07:34 15.8 °C 14.5 °C 1010 hPa West 7.9 km/h 19.3 km/h 92% 0 mm 91 W/m2
07:39 15.8 °C 14.5 °C 1010 hPa West 8.2 km/h 14.5 km/h 92% 0 mm 83 W/m2
07:44 15.9 °C 14.6 °C 1010 hPa West 8.5 km/h 12.9 km/h 92% 0 mm 58 W/m2
07:49 15.9 °C 14.6 °C 1010 hPa WSW 11.6 km/h 22.5 km/h 92% 0 mm 79 W/m2
07:54 15.9 °C 14.7 °C 1010 hPa West 8.5 km/h 20.9 km/h 92% 0 mm 111 W/m2
07:59 16 °C 14.7 °C 1010 hPa WSW 12.1 km/h 22.5 km/h 92% 0 mm 88 W/m2
08:04 16.1 °C 14.8 °C 1010.4 hPa West 8.5 km/h 16.1 km/h 92% 0 mm 70 W/m2
08:09 16.2 °C 14.8 °C 1010.4 hPa WSW 9.2 km/h 14.5 km/h 91.6% 0 mm 79 W/m2
08:14 16.2 °C 14.7 °C 1010.4 hPa WSW 10.1 km/h 20.9 km/h 91% 0 mm 100 W/m2
08:19 16.3 °C 14.8 °C 1010.4 hPa West 8.9 km/h 20.9 km/h 91% 0 mm 169 W/m2
08:24 16.3 °C 14.8 °C 1010.4 hPa WSW 7.7 km/h 19.3 km/h 91% 0 mm 167 W/m2
08:29 16.4 °C 14.8 °C 1010.4 hPa WSW 9 km/h 17.7 km/h 90.8% 0 mm 70 W/m2
08:34 16.3 °C 14.7 °C 1010 hPa WSW 14 km/h 19.3 km/h 90% 0 mm 60 W/m2
08:39 16.3 °C 14.7 °C 1010.4 hPa WSW 8.7 km/h 17.7 km/h 90% 0 mm 56 W/m2
08:44 16.3 °C 14.7 °C 1010.4 hPa WSW 11.3 km/h 24.1 km/h 90% 0 mm 95 W/m2
08:49 16.4 °C 14.7 °C 1010.4 hPa West 11.9 km/h 19.3 km/h 89.4% 0 mm 77 W/m2
08:54 16.5 °C 14.7 °C 1010 hPa WSW 14.2 km/h 22.5 km/h 89% 0 mm 90 W/m2
08:59 16.6 °C 14.8 °C 1010 hPa WSW 9.2 km/h 17.7 km/h 89% 0 mm 90 W/m2
09:04 16.6 °C 14.8 °C 1010 hPa WSW 13.5 km/h 24.1 km/h 88.8% 0 mm 102 W/m2
09:09 16.7 °C 14.7 °C 1010 hPa WSW 10 km/h 24.1 km/h 88% 0 mm 114 W/m2
09:14 16.7 °C 14.7 °C 1010 hPa SW 12.6 km/h 17.7 km/h 88% 0 mm 132 W/m2
09:19 16.8 °C 14.7 °C 1010 hPa WSW 13.8 km/h 22.5 km/h 87.8% 0 mm 158 W/m2
09:24 16.8 °C 14.8 °C 1010 hPa SW 7.7 km/h 17.7 km/h 87.6% 0 mm 149 W/m2
09:29 16.9 °C 14.7 °C 1010 hPa WSW 12.6 km/h 19.3 km/h 87% 0 mm 118 W/m2
09:34 16.9 °C 14.7 °C 1010 hPa WSW 8.5 km/h 20.9 km/h 87% 0 mm 155 W/m2
09:39 16.9 °C 14.7 °C 1010 hPa West 12.9 km/h 20.9 km/h 87% 0 mm 174 W/m2
09:44 17.1 °C 14.7 °C 1010 hPa WSW 11.3 km/h 22.5 km/h 86% 0 mm 185 W/m2
09:49 17.2 °C 14.9 °C 1010 hPa West 11.9 km/h 24.1 km/h 86.6% 0 mm 178 W/m2
09:54 17.2 °C 14.8 °C 1010 hPa WSW 14.8 km/h 29 km/h 86% 0 mm 192 W/m2
09:59 17.1 °C 14.7 °C 1010 hPa WSW 16.7 km/h 29 km/h 86% 0 mm 179 W/m2
10:04 17.1 °C 14.7 °C 1010 hPa WSW 12.7 km/h 22.5 km/h 86% 0 mm 121 W/m2
10:09 17.1 °C 14.7 °C 1010 hPa West 11.4 km/h 25.7 km/h 86% 0 mm 153 W/m2
10:14 17.1 °C 14.7 °C 1010.4 hPa West 12.2 km/h 20.9 km/h 86% 0 mm 141 W/m2
10:19 17.1 °C 14.7 °C 1010.4 hPa WSW 14.8 km/h 27.4 km/h 86% 0 mm 95 W/m2
10:24 17.1 °C 14.7 °C 1010.4 hPa WSW 11.9 km/h 24.1 km/h 86% 0 mm 176 W/m2
10:29 17.2 °C 14.8 °C 1010.4 hPa West 10.3 km/h 24.1 km/h 86% 0 mm 128 W/m2
10:34 17.2 °C 14.8 °C 1010.4 hPa SW 9.2 km/h 16.1 km/h 86% 0 mm 130 W/m2
10:39 17.2 °C 14.8 °C 1010.4 hPa WSW 13.8 km/h 22.5 km/h 86% 0 mm 151 W/m2
10:44 17.2 °C 14.8 °C 1010.4 hPa West 10.3 km/h 20.9 km/h 85.8% 0 mm 149 W/m2
10:49 17.3 °C 14.8 °C 1010.4 hPa West 11.3 km/h 24.1 km/h 85% 0 mm 156 W/m2
10:54 17.3 °C 14.8 °C 1010.4 hPa WSW 14.6 km/h 25.7 km/h 85% 0 mm 109 W/m2
10:59 17.3 °C 14.8 °C 1010.4 hPa WSW 13.8 km/h 25.7 km/h 85% 0 mm 127 W/m2
11:04 17.3 °C 14.8 °C 1010.4 hPa West 10.1 km/h 25.7 km/h 85% 0 mm 190 W/m2
11:09 17.3 °C 14.8 °C 1010 hPa West 8.5 km/h 19.3 km/h 85% 0 mm 192 W/m2
11:14 17.4 °C 14.9 °C 1010 hPa WSW 13.2 km/h 20.9 km/h 85% 0 mm 181 W/m2
11:19 17.4 °C 14.9 °C 1010.4 hPa WSW 12.1 km/h 17.7 km/h 85% 0 mm 151 W/m2
11:24 17.4 °C 14.9 °C 1010.4 hPa WSW 9.8 km/h 19.3 km/h 85% 0 mm 174 W/m2
11:29 17.4 °C 14.9 °C 1010.4 hPa SW 11.6 km/h 22.5 km/h 85% 0 mm 167 W/m2
11:34 17.5 °C 14.9 °C 1010 hPa SW 10.6 km/h 20.9 km/h 85% 0 mm 188 W/m2
11:39 17.6 °C 15 °C 1010 hPa WSW 9.5 km/h 17.7 km/h 85% 0 mm 227 W/m2
11:44 17.7 °C 15.1 °C 1010 hPa WSW 9.8 km/h 17.7 km/h 85% 0 mm 223 W/m2
11:49 17.7 °C 15.1 °C 1010 hPa WSW 15 km/h 17.7 km/h 84.5% 0 mm 188 W/m2
11:54 17.8 °C 15.1 °C 1010 hPa WSW 11.9 km/h 19.3 km/h 84% 0 mm 206 W/m2
11:59 17.8 °C 15.1 °C 1010 hPa WSW 8.4 km/h 22.5 km/h 84% 0 mm 202 W/m2
12:04 17.9 °C 15.2 °C 1010 hPa WSW 9.5 km/h 24.1 km/h 84% 0 mm 192 W/m2
12:09 17.9 °C 15.2 °C 1010 hPa West 11.6 km/h 24.1 km/h 84% 0 mm 193 W/m2
12:14 17.8 °C 15.2 °C 1010.4 hPa WSW 13.5 km/h 22.5 km/h 84% 0 mm 88 W/m2
12:19 17.8 °C 15.1 °C 1010 hPa WSW 8.7 km/h 19.3 km/h 84% 0 mm 116 W/m2
12:24 17.8 °C 15.1 °C 1010.4 hPa WSW 9.7 km/h 19.3 km/h 84% 0 mm 107 W/m2
12:29 17.8 °C 15.1 °C 1010.4 hPa SW 16.4 km/h 27.4 km/h 84% 0 mm 132 W/m2
12:34 17.8 °C 15.1 °C 1010.4 hPa SW 14 km/h 24.1 km/h 84% 0 mm 130 W/m2
12:39 17.9 °C 15.2 °C 1010.4 hPa West 9.3 km/h 24.1 km/h 84% 0 mm 120 W/m2
12:44 17.9 °C 15.2 °C 1010.4 hPa WSW 11.6 km/h 22.5 km/h 84% 0 mm 105 W/m2
12:49 17.9 °C 15.2 °C 1010.4 hPa WSW 13.8 km/h 25.7 km/h 84% 0 mm 88 W/m2
12:54 17.9 °C 15.2 °C 1010.4 hPa WSW 10.6 km/h 17.7 km/h 84% 0 mm 120 W/m2
12:59 18 °C 15.3 °C 1010.4 hPa WSW 9.3 km/h 17.7 km/h 84.4% 0 mm 162 W/m2
13:04 18.1 °C 15.4 °C 1010.4 hPa WSW 14.2 km/h 24.1 km/h 85% 0 mm 218 W/m2
13:09 18.2 °C 15.4 °C 1010.4 hPa West 10.6 km/h 24.1 km/h 84% 0 mm 204 W/m2
13:14 18.2 °C 15.5 °C 1010.4 hPa West 12.4 km/h 25.7 km/h 84% 0 mm 278 W/m2
13:19 18.2 °C 15.6 °C 1010.4 hPa West 11.3 km/h 27.4 km/h 84.6% 0 mm 264 W/m2
13:24 18 °C 15.6 °C 1010.4 hPa WSW 14.8 km/h 22.5 km/h 85.8% 0 mm 221 W/m2
13:29 17.9 °C 15.5 °C 1010.4 hPa West 12.9 km/h 29 km/h 86% 0 mm 151 W/m2
13:34 17.9 °C 15.5 °C 1010.4 hPa WSW 17.1 km/h 29 km/h 86% 0 mm 125 W/m2
13:39 17.9 °C 15.5 °C 1010.4 hPa West 12.1 km/h 25.7 km/h 86% 0 mm 141 W/m2
13:44 17.8 °C 15.4 °C 1010.4 hPa West 9.5 km/h 20.9 km/h 86% 0 mm 130 W/m2
13:49 17.8 °C 15.6 °C 1010.4 hPa West 9 km/h 19.3 km/h 87% 0 mm 141 W/m2
13:54 17.8 °C 15.6 °C 1010.4 hPa West 10.6 km/h 16.1 km/h 87% 0.25 mm 90 W/m2
13:59 17.7 °C 15.5 °C 1010.4 hPa West 7.2 km/h 16.1 km/h 87.3% 0.25 mm 113 W/m2
14:04 17.6 °C 15.6 °C 1010 hPa WSW 8.4 km/h 16.1 km/h 88% 0.25 mm 114 W/m2
14:09 17.7 °C 15.7 °C 1010 hPa WSW 7.2 km/h 16.1 km/h 88% 0.25 mm 105 W/m2
14:14 17.7 °C 15.7 °C 1010 hPa WSW 12.9 km/h 19.3 km/h 88% 0.25 mm 144 W/m2
14:19 17.7 °C 15.7 °C 1010.4 hPa WSW 11.3 km/h 20.9 km/h 88% 0.25 mm 153 W/m2
14:24 17.7 °C 15.7 °C 1010 hPa WSW 10.9 km/h 20.9 km/h 88% 0.25 mm 125 W/m2
14:29 17.8 °C 15.8 °C 1010 hPa WSW 9 km/h 16.1 km/h 88% 0.25 mm 114 W/m2
14:34 17.8 °C 15.8 °C 1010 hPa West 10.3 km/h 19.3 km/h 88% 0.25 mm 107 W/m2
14:39 17.8 °C 15.8 °C 1010 hPa West 9.2 km/h 20.9 km/h 88% 0.25 mm 107 W/m2
14:44 17.8 °C 15.8 °C 1010 hPa West 5.6 km/h 11.3 km/h 88% 0.25 mm 107 W/m2
14:49 17.6 °C 15.8 °C 1010 hPa West 5.8 km/h 12.9 km/h 89% 0.51 mm 104 W/m2
14:53 17.4 °C 15.7 °C 1010 hPa West 4.3 km/h 12.9 km/h 89.8% 0.51 mm 153 W/m2
14:59 17.4 °C 15.7 °C 1010 hPa West 6.4 km/h 12.9 km/h 90% 0.25 mm 160 W/m2
15:04 17.3 °C 15.6 °C 1010 hPa WNW 6 km/h 9.7 km/h 90% 0.25 mm 199 W/m2
15:09 17.4 °C 15.9 °C 1010 hPa WNW 6 km/h 11.3 km/h 91% 0.25 mm 176 W/m2
15:14 17.4 °C 15.9 °C 1010 hPa WNW 9.2 km/h 16.1 km/h 91% 0.25 mm 151 W/m2
15:24 17.3 °C 15.8 °C 1010 hPa WNW 11.7 km/h 16.1 km/h 91% 0.25 mm 149 W/m2
15:29 17.2 °C 15.8 °C 1010 hPa NW 10.9 km/h 19.3 km/h 91.8% 0.25 mm 155 W/m2
15:34 17.2 °C 15.8 °C 1010 hPa WNW 8.7 km/h 19.3 km/h 91.6% 0.25 mm 197 W/m2
15:39 17.2 °C 15.8 °C 1010 hPa WNW 11.3 km/h 20.9 km/h 92% 0.25 mm 149 W/m2
15:44 17.2 °C 15.9 °C 1010 hPa WNW 8.7 km/h 20.9 km/h 92% 0.25 mm 197 W/m2
15:49 17.2 °C 15.9 °C 1010 hPa WNW 10.6 km/h 19.3 km/h 92% 0.25 mm 202 W/m2
15:54 17.3 °C 16.1 °C 1010 hPa WNW 8.7 km/h 17.7 km/h 92% 0 mm 176 W/m2
15:59 17.4 °C 16.1 °C 1010 hPa WNW 10 km/h 22.5 km/h 91.4% 0 mm 149 W/m2
16:04 17.4 °C 15.9 °C 1010.4 hPa NW 11.9 km/h 19.3 km/h 91% 0 mm 116 W/m2
16:09 17.3 °C 15.8 °C 1010.4 hPa WNW 9.5 km/h 19.3 km/h 91% 0 mm 102 W/m2
16:14 17.3 °C 15.8 °C 1010.4 hPa WNW 9.7 km/h 16.1 km/h 91% 0 mm 93 W/m2
16:19 17.3 °C 15.8 °C 1010.4 hPa NW 9.3 km/h 17.7 km/h 91% 0 mm 84 W/m2
16:24 17.2 °C 15.7 °C 1010.4 hPa WNW 7.2 km/h 17.7 km/h 91% 0 mm 97 W/m2
16:29 17.2 °C 15.7 °C 1010.4 hPa West 10.1 km/h 17.7 km/h 91% 0 mm 114 W/m2
16:34 17.1 °C 15.6 °C 1010.4 hPa West 11.3 km/h 19.3 km/h 91% 0 mm 171 W/m2
16:39 16.9 °C 15.4 °C 1010.4 hPa WNW 10.9 km/h 25.7 km/h 91% 0 mm 186 W/m2
16:44 16.9 °C 15.4 °C 1010.4 hPa West 13.8 km/h 24.1 km/h 91% 0 mm 186 W/m2
16:49 17 °C 15.5 °C 1010.4 hPa West 9.7 km/h 20.9 km/h 91% 0 mm 230 W/m2
16:54 17 °C 15.5 °C 1010.4 hPa West 12.1 km/h 22.5 km/h 91% 0 mm 156 W/m2
16:59 17 °C 15.5 °C 1010.4 hPa WNW 12.6 km/h 20.9 km/h 91% 0 mm 142 W/m2
17:04 16.9 °C 15.4 °C 1010.4 hPa WNW 10.1 km/h 24.1 km/h 91% 0 mm 132 W/m2
17:09 16.9 °C 15.4 °C 1010.4 hPa WNW 10.6 km/h 24.1 km/h 91% 0 mm 116 W/m2
17:14 17 °C 15.5 °C 1010.4 hPa WNW 9 km/h 17.7 km/h 91% 0 mm 113 W/m2
17:19 17 °C 15.3 °C 1010.4 hPa WNW 10.8 km/h 24.1 km/h 90.2% 0 mm 102 W/m2
17:24 17.1 °C 15.4 °C 1010.4 hPa West 10.6 km/h 25.7 km/h 90% 0 mm 120 W/m2
17:29 17 °C 15.3 °C 1010.7 hPa West 14.5 km/h 30.6 km/h 90% 0 mm 155 W/m2
17:34 16.9 °C 15.3 °C 1010.4 hPa WNW 10.9 km/h 24.1 km/h 90.2% 0 mm 163 W/m2
17:39 16.8 °C 15.3 °C 1010.4 hPa West 13.2 km/h 22.5 km/h 91% 0 mm 142 W/m2
17:44 16.8 °C 15.3 °C 1010.4 hPa West 15.3 km/h 20.9 km/h 91% 0 mm 139 W/m2
17:49 16.7 °C 15.2 °C 1010.4 hPa WNW 12.2 km/h 22.5 km/h 91% 0 mm 141 W/m2
17:54 16.6 °C 15.2 °C 1010.7 hPa West 10 km/h 22.5 km/h 91.6% 0 mm 146 W/m2
17:58 16.6 °C 15.3 °C 1010.4 hPa WNW 12.9 km/h 25.7 km/h 92% 0 mm 149 W/m2
18:04 16.6 °C 15.3 °C 1010.4 hPa WNW 11.9 km/h 24.1 km/h 92% 0 mm 188 W/m2
18:09 16.7 °C 15.3 °C 1010.4 hPa WNW 12.9 km/h 17.7 km/h 92% 0 mm 216 W/m2
18:14 16.7 °C 15.4 °C 1010.4 hPa West 9 km/h 16.1 km/h 92% 0 mm 142 W/m2
18:19 16.7 °C 15.4 °C 1010.4 hPa WNW 6.8 km/h 16.1 km/h 92.2% 0 mm 98 W/m2
18:24 16.6 °C 15.5 °C 1010.4 hPa West 6.9 km/h 19.3 km/h 93% 0 mm 81 W/m2
18:29 16.6 °C 15.5 °C 1010.4 hPa WNW 10.3 km/h 17.7 km/h 93% 0 mm 63 W/m2
18:33 16.6 °C 15.5 °C 1010.4 hPa WNW 11.6 km/h 19.3 km/h 93% 0 mm 72 W/m2
18:39 16.5 °C 15.4 °C 1010.4 hPa WNW 10.5 km/h 19.3 km/h 93% 0 mm 95 W/m2
18:44 16.4 °C 15.3 °C 1010.4 hPa WNW 12.6 km/h 19.3 km/h 93% 0 mm 65 W/m2
18:49 16.6 °C 15.4 °C 1010.4 hPa WNW 9.5 km/h 17.7 km/h 93% 0 mm 74 W/m2
18:54 16.6 °C 15.4 °C 1010.4 hPa West 9.5 km/h 17.7 km/h 93% 0 mm 65 W/m2
18:59 16.6 °C 15.5 °C 1010.4 hPa West 6.6 km/h 17.7 km/h 93% 0 mm 62 W/m2
19:04 16.6 °C 15.5 °C 1010.4 hPa WNW 7.1 km/h 11.3 km/h 93% 0 mm 54 W/m2
19:08 16.5 °C 15.4 °C 1010.4 hPa WNW 9.2 km/h 14.5 km/h 93% 0 mm 46 W/m2
19:14 16.6 °C 15.5 °C 1010.4 hPa WNW 5.8 km/h 12.9 km/h 93% 0 mm 46 W/m2
19:19 16.6 °C 15.5 °C 1010.4 hPa West 6.6 km/h 16.1 km/h 93% 0 mm 42 W/m2
19:24 16.7 °C 15.6 °C 1010.4 hPa WSW 8.4 km/h 14.5 km/h 93% 0 mm 46 W/m2
19:29 16.7 °C 15.4 °C 1010.4 hPa West 7.9 km/h 17.7 km/h 92.2% 0 mm 37 W/m2
19:34 16.7 °C 15.4 °C 1010.4 hPa WNW 7.2 km/h 14.5 km/h 92% 0 mm 33 W/m2
19:39 16.7 °C 15.4 °C 1010.4 hPa WNW 6 km/h 16.1 km/h 92% 0 mm 33 W/m2
19:44 16.8 °C 15.5 °C 1010 hPa WNW 9.7 km/h 14.5 km/h 92% 0 mm 30 W/m2
19:49 16.8 °C 15.5 °C 1010 hPa West 4.7 km/h 12.9 km/h 92% 0 mm 28 W/m2
19:54 16.8 °C 15.5 °C 1010 hPa West 4 km/h 11.3 km/h 92% 0 mm 25 W/m2
19:59 16.8 °C 15.3 °C 1010 hPa WNW 7.7 km/h 11.3 km/h 91% 0 mm 25 W/m2
20:04 16.8 °C 15.3 °C 1010 hPa West 7.1 km/h 9.7 km/h 91% 0 mm 23 W/m2
20:09 16.9 °C 15.4 °C 1010.4 hPa West 7.2 km/h 16.1 km/h 91% 0 mm 19 W/m2
20:14 16.9 °C 15.4 °C 1010.4 hPa West 8.5 km/h 12.9 km/h 91% 0 mm 19 W/m2
20:19 16.9 °C 15.2 °C 1010 hPa West 7.1 km/h 14.5 km/h 90% 0 mm 16 W/m2
20:24 16.9 °C 15.2 °C 1010.4 hPa West 10.3 km/h 19.3 km/h 90% 0 mm 14 W/m2
20:29 16.9 °C 15.2 °C 1010.4 hPa West 6 km/h 14.5 km/h 90% 0 mm 16 W/m2
20:34 16.9 °C 15.2 °C 1010 hPa West 10.5 km/h 22.5 km/h 89.8% 0 mm 16 W/m2
20:39 16.9 °C 15.2 °C 1010 hPa West 10 km/h 27.4 km/h 89% 0.25 mm 12 W/m2
20:44 17 °C 15.2 °C 1010 hPa West 12.2 km/h 20.9 km/h 89% 0.25 mm 12 W/m2
20:49 17 °C 15.2 °C 1010.4 hPa West 8.9 km/h 17.7 km/h 89% 0.25 mm 11 W/m2
20:54 16.9 °C 15.2 °C 1010.4 hPa West 7.2 km/h 11.3 km/h 89% 0.25 mm 7 W/m2
20:59 16.9 °C 15.1 °C 1010 hPa West 5.5 km/h 14.5 km/h 89% 0.25 mm 5 W/m2
21:04 16.9 °C 15.1 °C 1010.4 hPa West 8.4 km/h 14.5 km/h 89% 0.25 mm 0 W/m2
21:09 16.9 °C 15.1 °C 1010.4 hPa West 6.8 km/h 16.1 km/h 88.5% 0.25 mm 0 W/m2
21:14 16.9 °C 14.9 °C 1010.4 hPa WSW 8.7 km/h 19.3 km/h 88% 0.25 mm 0 W/m2
21:19 16.9 °C 14.9 °C 1010.4 hPa West 8.4 km/h 19.3 km/h 88% 0.25 mm 0 W/m2
21:24 16.9 °C 14.9 °C 1010.4 hPa WSW 17.4 km/h 27.4 km/h 88% 0.25 mm 0 W/m2
21:29 16.9 °C 14.8 °C 1010.4 hPa West 7.6 km/h 20.9 km/h 87.8% 0.25 mm 0 W/m2
21:34 16.9 °C 14.7 °C 1010.4 hPa West 11.7 km/h 25.7 km/h 87% 0.25 mm 0 W/m2
21:39 16.9 °C 14.7 °C 1010.4 hPa West 7.7 km/h 22.5 km/h 87% 0.25 mm 0 W/m2
21:44 16.9 °C 14.7 °C 1010.4 hPa West 5 km/h 12.9 km/h 87% 0 mm 0 W/m2
21:49 16.9 °C 14.7 °C 1010.4 hPa WSW 14.2 km/h 25.7 km/h 87% 0 mm 0 W/m2
21:54 16.9 °C 14.7 °C 1010.7 hPa WSW 7.9 km/h 22.5 km/h 87% 0 mm 0 W/m2
21:59 16.8 °C 14.6 °C 1010.7 hPa WSW 14.5 km/h 22.5 km/h 87% 0 mm 0 W/m2
22:04 16.7 °C 14.5 °C 1010.4 hPa WSW 12.6 km/h 22.5 km/h 87% 0 mm 0 W/m2
22:09 16.7 °C 14.5 °C 1010.4 hPa SW 13.5 km/h 24.1 km/h 87% 0 mm 0 W/m2
22:14 16.6 °C 14.4 °C 1010.4 hPa SW 11.9 km/h 24.1 km/h 87% 0 mm 0 W/m2
22:19 16.6 °C 14.4 °C 1010.4 hPa WSW 15.8 km/h 24.1 km/h 87% 0 mm 0 W/m2
22:24 16.5 °C 14.3 °C 1010.4 hPa WSW 11.3 km/h 19.3 km/h 87% 0 mm 0 W/m2
22:29 16.4 °C 14.2 °C 1010.4 hPa WSW 7.9 km/h 17.7 km/h 87% 0 mm 0 W/m2
22:34 16.3 °C 14.2 °C 1010.4 hPa WSW 9.5 km/h 19.3 km/h 87% 0 mm 0 W/m2
22:39 16.3 °C 14.1 °C 1010.4 hPa WSW 9.8 km/h 22.5 km/h 87% 0 mm 0 W/m2
22:44 16.3 °C 14.1 °C 1010 hPa WSW 8.7 km/h 25.7 km/h 87% 0 mm 0 W/m2
22:49 16.3 °C 14.1 °C 1010 hPa SW 8.9 km/h 17.7 km/h 87% 0 mm 0 W/m2
22:54 16.3 °C 14.1 °C 1010 hPa SW 6.1 km/h 14.5 km/h 87% 0 mm 0 W/m2
22:59 16.3 °C 14.1 °C 1010 hPa WSW 13.5 km/h 27.4 km/h 87% 0 mm 0 W/m2
23:04 16.3 °C 14.1 °C 1010 hPa WSW 10.3 km/h 19.3 km/h 87% 0 mm 0 W/m2
23:09 16.3 °C 14.2 °C 1010 hPa WSW 8.4 km/h 16.1 km/h 87.6% 0 mm 0 W/m2
23:14 16.3 °C 14.3 °C 1010 hPa WSW 10.3 km/h 24.1 km/h 88% 0 mm 0 W/m2
23:19 16.3 °C 14.3 °C 1010 hPa WSW 11.1 km/h 20.9 km/h 88% 0 mm 0 W/m2
23:24 16.3 °C 14.3 °C 1010 hPa WSW 12.2 km/h 29 km/h 88% 0 mm 0 W/m2
23:29 16.3 °C 14.3 °C 1010 hPa SW 12.9 km/h 29 km/h 88% 0 mm 0 W/m2
23:34 16.3 °C 14.3 °C 1010 hPa WSW 13.5 km/h 24.1 km/h 88% 0 mm 0 W/m2
23:39 16.3 °C 14.3 °C 1009.7 hPa WSW 10.6 km/h 20.9 km/h 88% 0 mm 0 W/m2
23:44 16.3 °C 14.3 °C 1009.7 hPa West 9.5 km/h 20.9 km/h 88% 0 mm 0 W/m2
23:49 16.3 °C 14.3 °C 1009.7 hPa SW 9 km/h 17.7 km/h 88% 0 mm 0 W/m2
23:54 16.3 °C 14.3 °C 1009.7 hPa SW 12.9 km/h 22.5 km/h 88% 0 mm 0 W/m2
23:59 16.4 °C 14.4 °C 1009.7 hPa WSW 13.2 km/h 25.7 km/h 88% 0 mm 0 W/m2
Bath Spa Weather
Compliments of Weather Underground - 2 mb